{"data":{"norad_id":58418,"intl_designator":"2023-180S","name":"STARLINK-30895","alt_names":[],"object_type":"PAYLOAD","status":"ACTIVE","operator":null,"country":"US","launch_date":"2023-11-22","launch_site_code":"AFETR","launch_vehicle":null,"mission":null,"orbit_class":"UNKNOWN","rcs_meters":null,"size_class":null,"mass_kg":null,"dimensions":null,"purposes":["comms"],"wikipedia_slug":null,"has_3d_model":false,"image_url":null,"decayed_at":null,"tle_current":{"epoch":"2026-05-24T23:23:08.630016Z","epoch_age_seconds":84138,"freshness":"FRESH","line1":"1 58418U 23180S   26144.97440544 -.00015370  00000+0 -55046-3 0  9994","line2":"2 58418  43.0024 341.6585 0000969 271.5770  88.4971 15.27563714139186","mean_motion":15.27563714,"eccentricity":9.69e-5,"inclination_deg":43.0024,"raan_deg":341.6585,"arg_perigee_deg":271.577,"mean_anomaly_deg":88.4971,"bstar":-0.00055046,"rev_number":13918,"period_min":94.267753731155,"perigee_km":482.43300895759,"apogee_km":483.76271627396,"semimajor_km":6861.2348626158,"source":"CELESTRAK","updated_at":"2026-05-25T13:38:18.619948Z"}}}